Regional Weather Roundup
Issued by NWS

Home | Current Version | Previous Version | Graphics & Text | Print | Product List | Glossary Off
Versions: 1 2 3 4 5 6 7 8 9 10 11 12 13 14 15 16 17 18 19 20 21 22 23 24 25 26 27 28 29 30 31 32 33 34 35 36 37 38 39 40 41 42 43 44 45 46 47 48 49 50

000
ASUS43 KDTX 290810
RWRMI
MICHIGAN HOURLY REGIONAL WEATHER ROUNDUP
NATIONAL WEATHER SERVICE DETROIT/PONTIAC MI
400 AM EDT SUN MAY 29 2016

NOTE: "FAIR" INDICATES FEW OR NO CLOUDS BELOW 12,000 FEET WITH NO
SIGNIFICANT WEATHER AND/OR OBSTRUCTION TO VISIBILITY.

MIZ047>049-052>055-059>063-066>070-074>076-081>083-290900-
SOUTHEAST LOWER MICHIGAN

CITY           SKY/WX    TMP DP  RH WIND       PRES   REMARKS
ADRIAN         CLOUDY    70  64  81 S7        30.05S
ALMA           PTCLDY    69  64  84 S10       29.98F
ANN ARBOR      CLOUDY    67  63  87 S5        30.04S
BAD AXE        CLOUDY    70  64  82 S6        30.01S
CARO           CLOUDY    69  63  81 S3        30.00S
DETROIT CITY   CLEAR     69  62  78 S6        30.04S
DETROIT        CLOUDY    69  62  78 S7        30.05S
FLINT          CLOUDY    75  62  64 S8        30.01S
GROSSE ILE     CLOUDY    68  64  88 S6        30.04S
HILLSDALE      MOCLDY    68  64  86 S7        30.04S
HOWELL         CLOUDY    71  64  80 S3        30.02F

CITY           SKY/WX    TMP DP  RH WIND       PRES   REMARKS
JACKSON        CLOUDY    69  65  86 S7        30.02F
LAMBERTVILLE   CLOUDY    71  63  76 SW6       30.06S
LANSING        CLOUDY    70  64  81 S9        30.00F
LAPEER         FAIR      70  60  69 S5        30.03S
MASON          PTCLDY    69  64  84 SE6       30.01F
MONROE         CLOUDY    69  64  84 S6        30.04S
MT. CLEMENS    PTCLDY    65  65  98 S7        30.03S
PONTIAC        PTCLDY    70  61  73 S6        30.03S
PORT HOPE        N/A     73  65  75 VRB5      29.98S
PORT HURON     CLEAR     66  64  94 S3        30.04S
TRI CITIES     CLOUDY    73  66  78 S10       29.98F
MIDLAND        MOCLDY    70  64  83 S5        29.97F
TROY           CLEAR     70  63  78 S6        30.05F
SAGINAW HB     CLOUDY    70  64  83 SW7       29.98F
$$
MIZ043>046-050>051-056>058-064>065-071>073-077>080-290900-
SOUTHWEST LOWER MICHIGAN

CITY           SKY/WX    TMP DP  RH WIND       PRES   REMARKS
BATTLE CREEK   CLOUDY    69  64  84 S9        30.01S
BENTON HARBOR  CLOUDY    66  61  84 SE5       29.95F
BIG RAPIDS     PTCLDY    64  63  97 SE3       29.94F
COLDWATER      CLOUDY    71  64  79 SW6       30.02S
FREMONT        FAIR      62  62 100 S3        29.94S
HOLLAND        PTCLDY    65  58  78 S7        29.96F
GRAND RAPIDS   CLOUDY    71  60  68 S5        29.98S
IONIA          MOCLDY    70  62  76 S6        29.98S
KALAMAZOO      PTCLDY    69  63  81 S9        30.00S
LUDINGTON      PTCLDY    62  59  88 S5        29.92R
MARSHALL       CLOUDY    71  64  80 S6        30.01S
MOUNT PLEASANT PTCLDY    70  62  78 SE3       29.96F
MUSKEGON       PTCLDY    64  56  75 S7        29.94F
SOUTH HAVEN    MOCLDY    66  60  81 CALM      29.96F
$$
MIZ016>042-290900-
NORTHERN LOWER MICHIGAN

CITY           SKY/WX    TMP DP  RH WIND       PRES   REMARKS
ALPENA         CLOUDY    69  63  81 S5        29.94F
BEAVER ISLAND  CLEAR     64  56  76 SW5       29.89R
BELLAIRE       PTCLDY    68  61  77 CALM      29.91S
CADILLAC       PTCLDY    64  61  88 S5        29.94F
CHARLEVOIX     CLEAR     67  59  75 S7        29.92S
FRANKFORT      PTCLDY    60  59  96 CALM      29.88F
GAYLORD        PTCLDY    68  62  81 S8        29.95F
GRAYLING       PTCLDY    66  64  91 CALM      29.96F
HARBOR SPRINGS PTCLDY    69  61  76 SE3       29.90F
HOUGHTON LAKE  CLOUDY    69  62  78 S7        29.97F
MANISTEE       PTCLDY    59  55  88 E5        29.91R
OSCODA         CLOUDY    70  64  82 SW7       29.96F
PELLSTON       PTCLDY    69  61  75 S8        29.90F
ROGERS CITY    CLOUDY    69  63  79 SW5       29.95R
TRAVERSE CITY  PTCLDY    68  60  75 VRB3      29.88F
$$
MIZ007>008-015-290900-
EASTERN UPPER MICHIGAN

CITY           SKY/WX    TMP DP  RH WIND       PRES   REMARKS
KINROSS          N/A     63  63 100 SE7       29.90F
MACKINAC ISLAN CLOUDY    66  64  93 SE8       29.89F
NEWBERRY       PTCLDY    60  58  92 S12G18    29.88R
S. S. MARIE    CLOUDY    62  59  90 E5        29.89F
MUNISING         N/A     63  57  81 S5        29.82S
$$
MIZ004>006-011>014-085-290900-
CENTRAL UPPER MICHIGAN

CITY           SKY/WX    TMP DP  RH WIND       PRES   REMARKS
MANISTIQUE     PTCLDY    54  53  97 S5        29.86F
ESCANABA       CLEAR     61  57  88 S7        29.84S
MENOMINEE      CLOUDY    64  61  88 S5        29.84F
SAWYER-GWINN   PTCLDY    61  59  94 S9        29.83S
$$
MIZ001>003-009>011-084-290900-
WESTERN UPPER MICHIGAN

CITY           SKY/WX    TMP DP  RH WIND       PRES   REMARKS
IRON MOUNTAIN  CLOUDY    63  60  90 S6        29.81F
HOUGHTON       CLOUDY    58  56  93 SE6       29.77F FOG
COPPER HARBOR    N/A     45  45 100 N7        29.79F
IRONWOOD       CLOUDY    55  55 100 W8        29.78R VSB 1/2
$$

ABBREVIATIONS USED IN REMARKS
   TC - TEMPERATURE IN CELSIUS
  WCI - WIND CHILL INDEX
   HX - HEAT INDEX
  VSB - VISIBILITY





USA.gov is the U.S. government's official web portal to all federal, state and local government web resources and services.